Location: Barruelo
(41.2448°N, 3.8231°W)
Time: 09:15:27
(UTC+00:00)

Cosmos 2227 Rocket - Pass Details

Date: 23 March 2026
Orbit: 836 x 845 km, 71.0° (Epoch: 19 April)

Event Time Altitude Azimuth Distance (km) Brightness Sun altitude
Rises 19:44:43 0° 347° (NNW) 3,414 5.8 -14.6°
Reaches altitude 10° 19:47:49 10° 3° (N) 2,475 4.8 -15.1°
Maximum altitude 19:52:02 21° 51° (NE) 1,821 3.6 -15.9°
Enters shadow 19:53:30 19° 72° (ENE) 1,910 3.6 -16.2°
